Weather Roundup
Issued by NWS Chicago, IL

Home | Current Version | Previous Version | Text Only | Print | Product List | Glossary Off
Versions: 1 2 3 4 5 6 7 8 9 10 11 12 13 14 15 16 17 18 19 20 21 22 23 24 25 26 27 28 29 30 31 32 33 34 35 36 37 38 39 40 41 42 43 44 45 46 47 48 49 50

842
NZUS59 KLOT 240709
HRRLOT

CHICAGO AREA WEATHER ROUNDUP
NATIONAL WEATHER SERVICE CHICAGO/ROMEOVILLE IL
200 AM CDT WED MAY 24 2017

NOTE: "FAIR" INDICATES FEW OR NO CLOUDS BELOW 12,000 FEET WITH NO
SIGNIFICANT WEATHER AND/OR OBSTRUCTIONS TO VISIBILITY.

* THESE STATIONS ARE NOT UNDER NWS QUALITY CONTROL. THEY ALSO MAY NOT
  REPORT WEATHER SUCH AS PRECIPITATION OR FOG.

ILZ005-006-012>014-019>023-240800-
NORTHEAST ILLINOIS

CITY           SKY/WX    TMP DP  RH WIND       PRES   REMARKS
OHARE          CLOUDY    55  52  89 E7        29.64F
MIDWAY         DRIZZLE   57  55  93 NE6       29.63F FOG
AURORA         CLOUDY    55  55 100 NE6       29.64F FOG
LANSING*       RAIN      55  55 100 N3        29.63F
JOLIET*        RAIN      56  56  99 N3        29.63F
WAUKEGAN       LGT RAIN  50  50 100 N8        29.65F FOG
DUPAGE AIRPORT LGT RAIN  55  55 100 E5        29.64F FOG
WHEELING       LGT RAIN  53  53 100 NE8       29.65F
KANKAKEE*      LGT RAIN  56  55  97 CALM      29.64S
MORRIS*        LGT RAIN  55  54  97 CALM      29.63F
LEWIS AIRPORT* RAIN      55  55 100 NE3       29.63F
NORTHERLY ISL    N/A     54  52  93 MISG        N/A
$$

WIZ051-052-058>065-066-070>072-240800-
SOUTHEAST WISCONSIN

CITY           SKY/WX    TMP DP  RH WIND       PRES   REMARKS
MILWAUKEE      LGT RAIN  48  47  96 N6        29.68F VSB 1/2
KENOSHA*       LGT RAIN  50  48  93 NE7       29.67F FOG
RACINE*        RAIN      47  46  97 N7        29.69F FOG
WAUKESHA       LGT RAIN  46  46 100 N3        29.69F VSB 3/4
WEST BEND      FOG       46  46 100 NE5       29.69S VSB 1/2
$$

INZ001>003-010>013-019-020-240800-
NORTHWEST INDIANA

CITY           SKY/WX    TMP DP  RH WIND       PRES   REMARKS
GARY*          RAIN      55  54  96 N7        29.63F
MICHIGAN CITY* NOT AVBL
RENSSELAER*    NOT AVBL
VALPARAISO     CLOUDY    57  55  93 N3        29.62F
$$

LMZ740>746-240800-
SOUTHERN LAKE MICHIGAN

STATION/POSITION TIME  SKY/WX   TEMP WIND        PRES    VSBY
                                AIR  DIR/SP/G
                 (UTC)          (F)  (DEG/KT/KT) (MB)    (MI)
HARRISON CRIB    0640            55   10/  8/ 10   N/A
BURNHAM HARBOR   0700            54  360/  6/  8   N/A
CALUMET HARBOR   0648                310/  4/  6 1003.2F
BURNS HARBOR     0640            53   50/  6/  7 1003.7F
MICHIGAN CITY    0640            54   30/  6/  7   N/A
$$

ABBREVIATIONS USED IN REMARKS
   TC - TEMPERATURE IN CELSIUS
  WCI - WIND CHILL INDEX
   HX - HEAT INDEX
  VSB - VISIBILITY
$$




USA.gov is the U.S. government's official web portal to all federal, state and local government web resources and services.